Regional Weather Roundup
Issued by NWS Cleveland, OH

Home | Current Version | Previous Version | Graphics & Text | Print | Product List | Glossary On
Versions: 1 2 3 4 5 6 7 8 9 10 11 12 13 14 15 16 17 18 19 20 21 22 23 24 25 26 27 28 29 30 31 32 33 34 35 36 37 38 39 40 41 42 43 44 45 46 47 48 49 50
000
ASUS41 KCLE 241102
RWRCLE
OHIO REGIONAL WEATHER ROUNDUP
NATIONAL WEATHER SERVICE CLEVELAND, OH
700 AM EDT SUN SEP 24 2017

NOTE: "FAIR" INDICATES FEW OR NO CLOUDS BELOW 12,000 FEET WITH NO
SIGNIFICANT WEATHER AND/OR OBSTRUCTIONS TO VISIBILITY.

OHZ001>008-015>018-024>027-034-035-043-044-241200-
   NORTHWEST OHIO

CITY           SKY/WX    TMP DP  RH WIND       PRES   REMARKS
DEFIANCE       CLEAR     60  58  92 CALM      30.14S
FINDLAY        CLEAR     62  57  83 CALM      30.14R
TOLEDO EXPRESS CLEAR     62  62 100 CALM      30.14S
TOLEDO EXEC    CLEAR     64  59  83 CALM      30.15S
LIMA           CLEAR     59  57  93 E3        30.15R
$$

OHZ009>014-019>023-028>033-038-089-241200-
   NORTHEAST OHIO

CITY           SKY/WX    TMP DP  RH WIND       PRES   REMARKS
CLE-HOPKINS    CLEAR     65  60  84 CALM      30.17R
CLE-LAKEFRONT  CLEAR     69  61  75 CALM      30.15R
CUY CO. ARPT   CLEAR     66  63  88 NE5       30.17
LORAIN-ELYRIA  CLEAR     58  52  80 CALM      30.17R
ASHTABULA      CLEAR     59  59 100 CALM      30.19R
AKRON-CANTON   CLEAR     67  59  75 E5        30.18R
WOOSTER        CLEAR     55  54  96 CALM      30.18R
MANSFIELD      CLEAR     61  58  90 S5        30.17R
YOUNGSTOWN     CLEAR     62  61  96 CALM      30.18R
$$

OHZ042-051>053-060>062-070>072-077>081-241200-
  SOUTHWEST OHIO

CITY           SKY/WX    TMP DP  RH WIND       PRES   REMARKS
CINC-COVINGTON CLEAR     67  62  84 E7        30.11R
CINC-LUNKEN    CLEAR     59  59 100 CALM      30.12R
HAMILTON       CLEAR     57  57 100 CALM      30.12R
DAYTON         CLEAR     62  56  80 NE3       30.14R
WRIGHT-PAT AFB CLEAR     60  60 100 N3        30.13
DAYTON GENERAL CLEAR     62  57  83 E9        30.12R
WILMINGTON     CLEAR     60  58  92 NE5       30.13R
$$

OHZ036-037-039>041-045>050-054>059-063>069-073>076-082>088-241200-
  CENTRAL AND SOUTHEAST OHIO

CITY           SKY/WX    TMP DP  RH WIND       PRES   REMARKS
COLUMBUS       CLEAR     62  60  93 E3        30.13R
OSU AIRPORT    CLEAR     64  60  87 E3        30.14R
BOLTON FIELD   NOT AVBL
RICKENBACK AFB NOT AVBL
NEWARK         FOG       57  55  93 CALM      30.15R VSB 1/2
MARION         CLEAR     62  57  83 SW3       30.15S
LANCASTER      CLEAR     54  54 100 CALM      30.15R FOG
ZANESVILLE     CLEAR     58  55  90 CALM      30.15R
NEW PHILLY     NOT AVBL
$$



USA.gov is the U.S. government's official web portal to all federal, state and local government web resources and services.